TimeCDT,TemperatureF,Dew PointF,Humidity,Sea Level PressureIn,VisibilityMPH,Wind Direction,Wind SpeedMPH,Gust SpeedMPH,PrecipitationIn,Events,Conditions,WindDirDegrees,DateUTC
12:13 AM,30.2,28.4,93,29.85,5.0,NW,11.5,-,N/A,,Overcast,320,2013-03-10 06:13:00
12:34 AM,30.2,28.4,93,29.85,4.0,NNW,10.4,-,N/A,,Overcast,330,2013-03-10 06:34:00
12:53 AM,28.4,28.4,100,29.85,4.0,NNW,15.0,18.4,N/A,,Overcast,330,2013-03-10 06:53:00
1:14 AM,28.4,28.4,100,29.85,4.0,NNW,15.0,-,N/A,,Overcast,340,2013-03-10 07:14:00
1:33 AM,28.4,28.4,100,29.86,5.0,North,12.7,18.4,N/A,,Overcast,350,2013-03-10 07:33:00
1:53 AM,28.4,26.6,93,29.87,4.0,NNW,15.0,18.4,N/A,,Overcast,330,2013-03-10 07:53:00
3:14 AM,28.4,26.6,93,29.89,4.0,NNW,10.4,-,N/A,,Overcast,330,2013-03-10 08:14:00
3:33 AM,26.6,26.6,100,29.89,4.0,NNW,10.4,-,N/A,,Overcast,330,2013-03-10 08:33:00
3:53 AM,26.6,24.8,93,29.90,4.0,NNW,10.4,-,N/A,,Overcast,330,2013-03-10 08:53:00
4:14 AM,24.8,24.8,100,29.89,5.0,NNW,11.5,-,N/A,,Overcast,330,2013-03-10 09:14:00
4:33 AM,24.8,23.0,93,29.89,5.0,NNW,13.8,19.6,N/A,,Overcast,330,2013-03-10 09:33:00
4:53 AM,24.8,23.0,93,29.90,7.0,NNW,15.0,19.6,N/A,,Overcast,330,2013-03-10 09:53:00
5:13 AM,24.8,21.2,86,29.91,7.0,NNW,9.2,-,N/A,,Overcast,340,2013-03-10 10:13:00
5:33 AM,24.8,21.2,86,29.93,7.0,NNW,9.2,-,N/A,,Overcast,330,2013-03-10 10:33:00
5:52 AM,24.8,21.2,86,29.92,7.0,NNW,12.7,-,N/A,,Overcast,340,2013-03-10 10:52:00
6:13 AM,23.0,21.2,93,29.95,5.0,NNW,11.5,-,N/A,,Overcast,340,2013-03-10 11:13:00
6:34 AM,23.0,21.2,93,29.96,7.0,NNW,11.5,-,N/A,,Overcast,330,2013-03-10 11:34:00
7:34 AM,21.2,19.4,93,29.97,7.0,NNW,10.4,-,N/A,,Overcast,330,2013-03-10 12:34:00
7:53 AM,21.2,19.4,93,29.98,7.0,NNW,11.5,-,N/A,,Overcast,340,2013-03-10 12:53:00
8:13 AM,21.2,19.4,93,29.98,5.0,NNW,12.7,-,N/A,,Overcast,340,2013-03-10 13:13:00
8:34 AM,21.2,19.4,93,29.98,7.0,NNW,15.0,18.4,N/A,,Overcast,340,2013-03-10 13:34:00
8:53 AM,21.2,19.4,93,29.99,7.0,NNW,15.0,20.7,N/A,,Overcast,340,2013-03-10 13:53:00
9:13 AM,21.2,19.4,93,30.01,7.0,NNW,13.8,19.6,N/A,,Overcast,340,2013-03-10 14:13:00
9:33 AM,21.2,19.4,93,30.03,7.0,NNW,11.5,17.3,N/A,,Overcast,340,2013-03-10 14:33:00
9:53 AM,21.2,19.4,93,30.04,10.0,North,11.5,-,N/A,,Overcast,350,2013-03-10 14:53:00
10:14 AM,21.2,19.4,93,30.04,10.0,North,13.8,-,N/A,,Overcast,350,2013-03-10 15:14:00
10:33 AM,21.2,19.4,93,30.04,7.0,North,10.4,-,N/A,,Overcast,360,2013-03-10 15:33:00
10:53 AM,21.2,19.4,93,30.04,10.0,North,12.7,18.4,N/A,,Overcast,350,2013-03-10 15:53:00
11:14 AM,21.2,19.4,93,30.05,10.0,North,9.2,-,N/A,,Overcast,10,2013-03-10 16:14:00
11:33 AM,23.0,19.4,86,30.05,10.0,North,11.5,18.4,N/A,,Overcast,360,2013-03-10 16:33:00
11:53 AM,23.0,19.4,86,30.04,10.0,North,11.5,-,N/A,,Overcast,350,2013-03-10 16:53:00
12:14 PM,23.0,19.4,86,30.03,10.0,North,18.4,-,N/A,,Overcast,350,2013-03-10 17:14:00
12:33 PM,24.8,21.2,86,30.02,10.0,North,18.4,-,N/A,,Overcast,350,2013-03-10 17:33:00
12:53 PM,24.8,19.4,80,30.05,7.0,NNE,12.7,24.2,N/A,,Overcast,20,2013-03-10 17:53:00
1:14 PM,24.8,19.4,80,30.07,10.0,NNE,9.2,19.6,N/A,,Overcast,20,2013-03-10 18:14:00
1:33 PM,24.8,19.4,80,30.06,10.0,North,12.7,-,N/A,,Overcast,360,2013-03-10 18:33:00
1:54 PM,24.8,19.4,80,30.05,10.0,North,12.7,19.6,N/A,,Overcast,10,2013-03-10 18:54:00
2:13 PM,24.8,19.4,80,30.02,10.0,North,15.0,-,N/A,,Overcast,360,2013-03-10 19:13:00
2:33 PM,24.8,19.4,80,30.00,10.0,North,13.8,19.6,N/A,,Overcast,360,2013-03-10 19:33:00
2:54 PM,24.8,19.4,80,30.01,10.0,North,11.5,18.4,N/A,,Overcast,360,2013-03-10 19:54:00
3:13 PM,24.8,19.4,80,30.01,10.0,North,12.7,17.3,N/A,,Overcast,10,2013-03-10 20:13:00
3:33 PM,24.8,19.4,80,30.02,10.0,North,10.4,18.4,N/A,,Overcast,10,2013-03-10 20:33:00
3:54 PM,24.8,19.4,80,30.04,10.0,North,10.4,-,N/A,,Overcast,10,2013-03-10 20:54:00
4:13 PM,24.8,19.4,80,30.04,10.0,North,9.2,-,N/A,,Overcast,360,2013-03-10 21:13:00
4:33 PM,24.8,19.4,80,30.03,10.0,North,11.5,-,N/A,,Overcast,350,2013-03-10 21:33:00
4:54 PM,24.8,19.4,80,30.02,10.0,North,12.7,-,N/A,,Overcast,360,2013-03-10 21:54:00
5:13 PM,24.8,19.4,80,30.01,10.0,North,10.4,-,N/A,,Overcast,10,2013-03-10 22:13:00
5:33 PM,24.8,19.4,80,30.00,10.0,North,9.2,16.1,N/A,,Overcast,10,2013-03-10 22:33:00
5:54 PM,24.8,19.4,80,29.99,10.0,North,10.4,-,N/A,,Overcast,10,2013-03-10 22:54:00
6:13 PM,24.8,19.4,80,30.01,10.0,North,9.2,-,N/A,,Overcast,10,2013-03-10 23:13:00
6:33 PM,24.8,19.4,80,30.00,10.0,NNE,9.2,16.1,N/A,,Overcast,20,2013-03-10 23:33:00
6:54 PM,24.8,19.4,80,30.01,10.0,North,8.1,-,N/A,,Overcast,10,2013-03-10 23:54:00
7:13 PM,24.8,19.4,80,30.00,10.0,North,9.2,-,N/A,,Overcast,360,2013-03-11 00:13:00
7:33 PM,24.8,19.4,80,30.00,10.0,North,10.4,-,N/A,,Overcast,350,2013-03-11 00:33:00
7:53 PM,24.8,19.4,80,30.00,10.0,North,10.4,-,N/A,,Overcast,350,2013-03-11 00:53:00
8:13 PM,23.0,17.6,80,30.00,10.0,North,8.1,-,N/A,,Overcast,350,2013-03-11 01:13:00
8:33 PM,21.2,17.6,86,30.00,10.0,North,9.2,-,N/A,,Mostly Cloudy,350,2013-03-11 01:33:00
9:13 PM,21.2,17.6,86,30.00,10.0,NNW,8.1,-,N/A,,Overcast,340,2013-03-11 02:13:00
9:33 PM,21.2,17.6,86,30.00,10.0,North,12.7,-,N/A,,Overcast,350,2013-03-11 02:33:00
9:53 PM,21.2,17.6,86,30.01,10.0,North,9.2,-,N/A,,Overcast,360,2013-03-11 02:53:00
10:13 PM,21.2,17.6,86,30.01,10.0,NNE,5.8,-,N/A,,Overcast,20,2013-03-11 03:13:00
10:33 PM,21.2,17.6,86,30.01,10.0,North,8.1,-,N/A,,Overcast,360,2013-03-11 03:33:00
10:53 PM,19.4,15.8,86,30.00,10.0,North,5.8,-,N/A,,Mostly Cloudy,10,2013-03-11 03:53:00
11:13 PM,15.8,12.2,86,29.99,10.0,North,8.1,-,N/A,,Scattered Clouds,350,2013-03-11 04:13:00
11:33 PM,12.2,10.4,92,29.98,10.0,NNW,6.9,-,N/A,,Scattered Clouds,340,2013-03-11 04:33:00
11:53 PM,14.0,12.2,93,29.98,10.0,NNW,6.9,-,N/A,,Scattered Clouds,340,2013-03-11 04:53:00
12:13 AM,15.8,12.2,86,29.98,10.0,North,6.9,-,N/A,,Overcast,350,2013-03-11 05:13:00
12:33 AM,17.6,14.0,86,29.97,10.0,North,4.6,-,N/A,,Overcast,360,2013-03-11 05:33:00
12:53 AM,15.8,12.2,86,29.97,10.0,NNW,4.6,-,N/A,,Overcast,340,2013-03-11 05:53:00